FW4805 Weather Reports


Display with metric or nautical units.
time (UTC)temp
F
wind
direction
speed
MPH
gust
MPH
rain 1hr
in
rain 24hr
in
rain mn
in
humidity
%
barometer
mb
20260906085957 90 78 10.0 17.0 0.00 0.00 0.00 36 1015.9
20260906084957 89 68 8.0 19.0 0.00 0.00 0.00 37 1015.7
20260906083957 89 71 10.0 16.0 0.00 0.00 0.00 38 1015.7
20260906082956 88 60 7.0 17.0 0.00 0.00 0.00 41 1015.7
20260906080956 88 8 6.0 19.0 0.00 0.00 0.00 41 1015.6
20260906075956 88 61 8.0 15.0 0.00 0.00 0.00 39 1015.6
20260906074957 88 67 8.0 16.0 0.00 0.00 0.00 41 1015.6
20260906072957 87 64 9.0 16.0 0.00 0.00 0.00 39 1015.4
20260906071957 87 62 9.0 16.0 0.00 0.00 0.00 41 1015.4
20260906070957 87 68 8.0 20.0 0.00 0.00 0.00 41 1015.3
20260906065957 86 56 7.0 14.0 0.00 0.00 0.00 42 1015.1
20260906063957 86 68 9.0 19.0 0.00 0.00 0.00 40 1014.7
20260906061956 85 58 8.0 16.0 0.00 0.00 0.00 41 1014.6
20260906060957 85 65 10.0 17.0 0.00 0.00 0.00 42 1014.6
20260906055957 85 57 7.0 14.0 0.00 0.00 0.00 43 1014.6
20260906054957 84 71 9.0 20.0 0.00 0.00 0.00 45 1014.5
20260906052957 83 63 8.0 14.0 0.00 0.00 0.00 45 1014.6
20260906051957 83 67 8.0 19.0 0.00 0.00 0.00 45 1014.6
20260906050957 83 54 5.0 14.0 0.00 0.00 0.00 47 1014.7
20260906045958 82 48 8.0 19.0 0.00 0.00 0.00 47 1014.6
20260906044957 82 54 4.0 15.0 0.00 0.00 0.00 48 1014.5
20260906042957 81 54 4.0 16.0 0.00 0.00 0.00 47 1014.2
20260906041957 81 69 3.0 11.0 0.00 0.00 0.00 46 1014.3
20260906040958 80 65 3.0 9.0 0.00 0.00 0.00 46 1014.1
20260906035957 80 40 2.0 14.0 0.00 0.00 0.00 46 1014.2
20260906033957 81 75 4.0 11.0 0.00 0.00 0.00 45 1014.1
20260906032958 81 42 4.0 10.0 0.00 0.00 0.00 43 1014.1
20260906031957 81 344 4.0 13.0 0.00 0.00 0.00 43 1013.9
20260906024957 81 53 3.0 11.0 0.00 0.00 0.00 41 1013.7
20260906023957 81 18 3.0 14.0 0.00 0.00 0.00 42 1013.5
20260906022957 81 27 4.0 10.0 0.00 0.00 0.00 42 1013.5
20260906021957 81 12 3.0 8.0 0.00 0.00 0.00 42 1013.4
20260906020957 81 347 3.0 13.0 0.00 0.00 0.00 43 1013.6
20260906015957 80 57 1.0 8.0 0.00 0.00 0.00 44 1013.6
20260906014957 81 81 2.0 6.0 0.00 0.00 0.00 43 1013.6
20260906013957 80 60 2.0 5.0 0.00 0.00 0.00 43 1013.5
20260906012957 81 80 3.0 8.0 0.00 0.00 0.00 42 1013.6
20260906011957 81 72 4.0 15.0 0.00 0.00 0.00 41 1013.5
20260906010957 81 59 5.0 11.0 0.00 0.00 0.00 41 1013.5
20260906005957 81 17 3.0 10.0 0.00 0.00 0.00 40 1013.6
20260906004957 81 17 2.0 6.0 0.00 0.00 0.00 40 1013.7
20260906003958 82 342 5.0 13.0 0.00 0.00 0.00 40 1013.7
20260906002958 81 314 3.0 11.0 0.00 0.00 0.00 40 1013.8
20260906001957 82 344 4.0 13.0 0.00 0.00 0.00 39 1013.9
20260905234958 82 295 1.0 5.0 0.00 0.00 0.00 38 1013.8
20260905233957 82 320 6.0 13.0 0.00 0.00 0.00 37 1013.9
20260905232957 82 326 6.0 13.0 0.00 0.00 0.00 38 1013.8
20260905230957 82 329 8.0 14.0 0.00 0.00 0.00 39 1013.9
20260905225957 82 326 6.0 16.0 0.00 0.00 0.00 39 1014.0
20260905224957 82 321 8.0 15.0 0.00 0.00 0.00 39 1013.8
20260905223957 82 330 8.0 19.0 0.00 0.00 0.00 38 1014.0
20260905222957 82 324 7.0 19.0 0.00 0.00 0.00 39 1013.9
20260905221957 81 334 4.0 11.0 0.00 0.00 0.00 40 1014.0
20260905220957 82 333 4.0 17.0 0.00 0.00 0.00 40 1014.0
20260905215957 82 355 4.0 10.0 0.00 0.00 0.00 39 1014.0
20260905212957 81 317 5.0 14.0 0.00 0.00 0.00 41 1014.3
20260905211957 81 350 3.0 11.0 0.00 0.00 0.00 41 1014.4
20260905210957 81 330 4.0 13.0 0.00 0.00 0.00 42 1014.5
20260905205959 81 312 6.0 15.0 0.00 0.00 0.00 41 1014.7
20260905204958 82 325 6.0 15.0 0.00 0.00 0.00 38 1014.6
20260905203957 82 340 6.0 16.0 0.00 0.00 0.00 37 1014.6
20260905202957 82 54 4.0 11.0 0.00 0.00 0.00 38 1014.5
20260905200957 81 156 6.0 13.0 0.00 0.00 0.00 39 1014.6
20260905195958 81 138 10.0 17.0 0.00 0.00 0.00 41 1014.4
20260905194958 81 163 6.0 10.0 0.00 0.00 0.00 41 1014.5
20260905193958 81 138 6.0 11.0 0.00 0.00 0.00 42 1014.6
20260905192958 81 126 2.0 8.0 0.00 0.00 0.00 43 1014.7
20260905191958 81 20 5.0 13.0 0.00 0.00 0.00 43 1014.7
20260905190958 81 92 6.0 14.0 0.00 0.00 0.00 43 1014.7
20260905185958 81 93 5.0 10.0 0.00 0.00 0.00 44 1014.7
20260905184957 81 115 6.0 13.0 0.00 0.00 0.00 44 1014.6
20260905183957 81 130 3.0 11.0 0.00 0.00 0.00 44 1014.7
20260905182957 81 123 5.0 13.0 0.00 0.00 0.00 46 1014.7
20260905181957 81 90 9.0 15.0 0.00 0.00 0.00 44 1014.6
20260905174957 81 87 4.0 14.0 0.00 0.00 0.00 45 1014.6
20260905173957 81 90 5.0 19.0 0.00 0.00 0.00 45 1014.6
20260905172957 81 58 7.0 13.0 0.00 0.00 0.00 46 1014.3
20260905165957 81 41 7.0 19.0 0.00 0.00 0.00 44 1014.2
20260905164957 81 32 6.0 15.0 0.00 0.00 0.00 48 1013.9
20260905163957 81 42 5.0 19.0 0.00 0.00 0.00 49 1014.3
20260905161957 81 19 6.0 17.0 0.00 0.00 0.00 52 1014.4
20260905160957 81 39 7.0 23.0 0.00 0.00 0.00 49 1014.3
20260905155958 81 47 8.0 15.0 0.00 0.00 0.00 51 1014.4
20260905153958 82 31 9.0 20.0 0.00 0.00 0.00 50 1014.3
20260905152958 82 50 7.0 16.0 0.00 0.00 0.00 49 1014.3
20260905150957 83 55 8.0 19.0 0.00 0.00 0.00 48 1014.3
20260905145958 83 52 9.0 21.0 0.00 0.00 0.00 48 1014.3
20260905144958 83 27 11.0 23.0 0.00 0.00 0.00 43 1014.4
20260905143958 84 39 10.0 21.0 0.00 0.00 0.00 44 1014.4
20260905142958 83 26 11.0 20.0 0.00 0.00 0.00 47 1014.2
20260905141958 83 37 11.0 21.0 0.00 0.00 0.00 50 1014.2
20260905135958 84 29 11.0 21.0 0.00 0.00 0.00 47 1014.4
20260905134958 84 33 10.0 19.0 0.00 0.00 0.00 45 1014.2
20260905133958 84 51 10.0 17.0 0.00 0.00 0.00 45 1014.4
20260905132958 84 59 10.0 26.0 0.00 0.00 0.00 45 1014.5
20260905131958 83 355 11.0 20.0 0.00 0.00 0.00 46 1014.6
20260905130958 84 48 11.0 19.0 0.00 0.00 0.00 51 1014.7
20260905125958 84 61 8.0 24.0 0.00 0.00 0.00 49 1014.7
20260905124958 84 66 11.0 24.0 0.00 0.00 0.00 46 1014.8
20260905122958 84 63 15.0 29.0 0.00 0.00 0.00 42 1015.0
20260905120958 84 69 14.0 31.0 0.00 0.00 0.00 42 1015.1
20260905115958 84 67 11.0 29.0 0.00 0.00 0.00 43 1015.2
20260905114957 84 74 11.0 24.0 0.00 0.00 0.00 44 1015.2
20260905112957 83 62 13.0 23.0 0.00 0.00 0.00 47 1015.0
20260905111958 84 62 11.0 27.0 0.00 0.00 0.00 47 1015.1
20260905110957 83 359 11.0 26.0 0.00 0.00 0.00 49 1014.9
20260905104957 83 26 9.0 21.0 0.00 0.00 0.00 49 1015.0
20260905103957 84 68 10.0 23.0 0.00 0.00 0.00 48 1015.0
20260905101958 84 49 10.0 24.0 0.00 0.00 0.00 50 1015.0
20260905100957 84 41 8.0 20.0 0.00 0.00 0.00 48 1015.0
20260905095957 83 43 11.0 21.0 0.00 0.00 0.00 51 1014.9
20260905094957 83 27 8.0 29.0 0.00 0.00 0.00 52 1015.1
20260905093957 83 58 10.0 16.0 0.00 0.00 0.00 50 1015.2
20260905092958 83 29 10.0 25.0 0.00 0.00 0.00 53 1015.0
20260905091958 83 42 11.0 24.0 0.00 0.00 0.00 52 1015.0
20260905090958 83 59 12.0 24.0 0.00 0.00 0.00 49 1014.9